[TLELIST] Archives

 

[list_settings.list_name] Current TLEs

October 24th 2021 PDT

HST 1 20580U 90037B 21296.71025661 .00000853 00000-0 40503-4 0 9994 2 20580 28.4705 296.3611 0002690 10.0580 153.5343 15.09793157530393 ISS (ZARYA) 1 25544U 98067A 21297.41238546 .00004483 00000-0 90138-4 0 9998 2 25544 51.6436 63.7521 0003992 135.6595 323.8833 15.48786744308621 CXO 1 25867U 99040B 21297.68976115 .00000860 00000-0 00000-0 0 9998 2 25867 51.9390 249.5968 8517819 227.5915 0.2143 0.37805014 10931 ____________________________________________________________________ These 2-Line ...Continue Reading

[list_settings.list_name] Current TLEs

October 23rd 2021 PDT

HST 1 20580U 90037B 21295.71867429 .00000838 00000-0 39611-4 0 9990 2 20580 28.4706 302.9236 0002643 359.4905 163.9148 15.09791677530247 ISS (ZARYA) 1 25544U 98067A 21296.16607639 .00004743 00000-0 94926-4 0 9990 2 25544 51.6432 69.9148 0004112 134.2458 211.7840 15.48775716308426 CXO 1 25867U 99040B 21297.68976115 .00000860 00000-0 00000-0 0 9998 2 25867 51.9390 249.5968 8517819 227.5915 0.2143 0.37805014 10931 ____________________________________________________________________ These 2-Line ...Continue Reading

[list_settings.list_name] Current TLEs

October 22nd 2021 PDT

HST 1 20580U 90037B 21294.39035668 .00000865 00000-0 41204-4 0 9996 2 20580 28.4708 311.7144 0002586 345.1049 144.2511 15.09789935530040 ISS (ZARYA) 1 25544U 98067A 21295.47861339 .00004477 00000-0 90083-4 0 9996 2 25544 51.6426 73.3143 0004199 134.4858 336.0083 15.48767491308324 CXO 1 25867U 99040B 21295.04551238 .00000772 00000-0 00000+0 0 9992 2 25867 52.0064 249.7202 8512922 227.5442 0.2825 0.37805994 22059 ____________________________________________________________________ These 2-Line ...Continue Reading

[list_settings.list_name] Current TLEs

October 21st 2021 PDT

HST 1 20580U 90037B 21294.18237332 .00000873 00000-0 41731-4 0 9999 2 20580 28.4708 313.0909 0002577 342.8147 93.8597 15.09789664530274 ISS (ZARYA) 1 25544U 98067A 21294.50474988 .00000988 00000-0 26307-4 0 9990 2 25544 51.6428 78.1322 0003884 128.4355 308.6443 15.48754023308178 CXO 1 25867U 99040B 21295.04551238 .00000772 00000-0 00000+0 0 9992 2 25867 52.0064 249.7202 8512922 227.5442 0.2825 0.37805994 22059 ____________________________________________________________________ These 2-Line ...Continue Reading

[list_settings.list_name] Current TLEs

October 20th 2021 PDT

HST 1 20580U 90037B 21292.53930461 .00000861 00000-0 41011-4 0 9997 2 20580 28.4709 323.9646 0002493 324.3428 164.1542 15.09787184529766 ISS (ZARYA) 1 25544U 98067A 21293.46976684 -.00007856 00000-0 -13582-3 0 9997 2 25544 51.6414 83.2529 0003856 123.9521 298.7602 15.48733973308013 CXO 1 25867U 99040B 21295.04551238 .00000772 00000-0 00000+0 0 9992 2 25867 52.0064 249.7202 8512922 227.5442 0.2825 0.37805994 22059 ____________________________________________________________________ These 2-Line ...Continue Reading

[list_settings.list_name] Current TLEs

October 19th 2021 PDT

HST 1 20580U 90037B 21291.81850312 .00000973 00000-0 47758-4 0 9991 2 20580 28.4710 328.7346 0002450 315.8545 207.1514 15.09786665529654 ISS (ZARYA) 1 25544U 98067A 21292.23354167 .00004999 00000-0 99720-4 0 9999 2 25544 51.6434 89.3620 0003942 122.8816 242.7649 15.48739060307826 CXO 1 25867U 99040B 21292.40096598 .00000770 00000-0 00000-0 0 9991 2 25867 52.0635 249.8289 8506706 227.5144 0.2929 0.37804830 10905 ____________________________________________________________________ These 2-Line ...Continue Reading

[list_settings.list_name] Current TLEs

October 18th 2021 PDT

HST 1 20580U 90037B 21290.82703947 .00000967 00000-0 47406-4 0 9995 2 20580 28.4711 335.2961 0002416 304.2671 219.2211 15.09784887529501 ISS (ZARYA) 1 25544U 98067A 21291.23121242 .00006911 00000-0 13470-3 0 9997 2 25544 51.6435 94.3190 0004125 118.7701 54.7820 15.48735598307662 CXO 1 25867U 99040B 21292.40096598 .00000770 00000-0 00000-0 0 9991 2 25867 52.0635 249.8289 8506706 227.5144 0.2929 0.37804830 10905 ____________________________________________________________________ These 2-Line ...Continue Reading

[list_settings.list_name] Current TLEs

October 17th 2021 PDT

HST 1 20580U 90037B 21289.56233521 .00001013 00000-0 50211-4 0 9991 2 20580 28.4711 343.6656 0002380 289.2485 186.6629 15.09782962529311 ISS (ZARYA) 1 25544U 98067A 21290.19853984 .00007084 00000-0 13794-3 0 9997 2 25544 51.6433 99.4296 0004200 119.2585 52.9185 15.48722168307509 CXO 1 25867U 99040B 21292.40096598 .00000770 00000-0 00000-0 0 9991 2 25867 52.0635 249.8289 8506706 227.5144 0.2929 0.37804830 10905 ____________________________________________________________________ These 2-Line ...Continue Reading

[list_settings.list_name] Current TLEs

October 16th 2021 PDT

HST 1 20580U 90037B 21288.90996813 .00001023 00000-0 50811-4 0 9995 2 20580 28.4712 347.9829 0002367 281.5661 241.5583 15.09781807529482 ISS (ZARYA) 1 25544U 98067A 21289.46556698 .00002306 00000-0 50499-4 0 9993 2 25544 51.6439 103.0751 0004849 123.4318 279.4440 15.48713434307396 CXO 1 25867U 99040B 21289.75776576 .00000847 00000-0 00000-0 0 9991 2 25867 52.0984 249.9157 8500796 227.5080 0.4462 0.37808258 10901 ____________________________________________________________________ These 2-Line ...Continue Reading

[list_settings.list_name] Current TLEs

October 15th 2021 PDT

HST 1 20580U 90037B 21287.91839184 .00001063 00000-0 53205-4 0 9996 2 20580 28.4712 354.5448 0002366 269.8897 253.1219 15.09780159529060 ISS (ZARYA) 1 25544U 98067A 21288.26261686 .00003928 00000-0 80291-4 0 9994 2 25544 51.6417 108.9985 0004173 111.1100 60.4854 15.48683083307201 CXO 1 25867U 99040B 21289.75776576 .00000847 00000-0 00000-0 0 9991 2 25867 52.0984 249.9157 8500796 227.5080 0.4462 0.37808258 10901 ____________________________________________________________________ These 2-Line ...Continue Reading
  • This mailing list is a public mailing list - anyone may join or leave, at any time.
  • This mailing list is announce-only.

International Space Station (ISS) / Hubble Space Telescope (HST) / Chandra X-Ray Observatory Orbital Data via EMAIL

Privacy Policy:

Private list